Regional Weather Roundup
Issued by NWS

Home | Current Version | Previous Version | Text Only | Print | Product List | Glossary Off
Versions: 1 2 3 4 5 6 7 8 9 10 11 12 13 14 15 16 17 18 19 20 21 22 23 24 25 26 27 28 29 30 31 32 33 34 35 36 37 38 39 40 41 42 43 44 45 46 47 48 49 50

000
ASUS43 KLSX 110359
RWRMO

WEATHER SUMMARY FOR MISSOURI
NATIONAL WEATHER SERVICE SPRINGFIELD MO
1100 PM CDT THU JUL 10 2014

NOTE: "FAIR" INDICATES FEW OR NO CLOUDS BELOW 12,000 FEET WITH NO
       SIGNIFICANT WEATHER AND/OR OBSTRUCTIONS TO VISIBILITY.
       CURRENT SKY AND/OR WEATHER CONDITIONS ARE NOT AVAILABLE FOR
       CHILLICOTHE AND FARMINGTON.

MOZ001>031-035>038-043-044-053-054-110500-
...NORTHERN AND WESTERN MISSOURI...

CITY           SKY/WX    TMP DP  RH WIND       PRES   REMARKS
KANSAS CTY INT PTCLDY    74  65  73 SE9       30.07R
KANSAS C DTWN  CLEAR     76  66  71 SE8       30.06R
LEE`S SUMMIT   CLEAR     73  66  78 SE7       30.08R
ST JOSEPH      CLEAR     73  66  78 SE9       30.06R
CHILLICOTHE      N/A     72  61  68 SE3       30.11R
KIRKSVILLE     PTCLDY    67  60  78 SE7       30.13R

$$
MOZ066>068-077>081-088>096-101>105-110500-
...SOUTHWEST MISSOURI...

CITY           SKY/WX    TMP DP  RH WIND       PRES   REMARKS
SPRINGFIELD    CLEAR     69  64  84 S6        30.11R
JOPLIN         CLEAR     70  67  90 SE6       30.08R

$$
MOZ032>034-039>042-045>050-055>058-069>072-110500-
...CENTRAL MISSOURI...

CITY           SKY/WX    TMP DP  RH WIND       PRES   REMARKS
COLUMBIA       CLEAR     69  61  75 SE7       30.12R
JEFFERSON CITY CLEAR     69  63  81 SE5       30.11R
ROLLA          CLEAR     67  62  84 E6        30.12R
SEDALIA        CLEAR     70  65  84 SE7       30.11R
OSAGE BEACH      N/A     70  63  78 E3        30.11R VSB<1/4

$$
MOZ051-052-059>065-110500-
...EAST CENTRAL MISSOURI...

CITY           SKY/WX    TMP DP  RH WIND       PRES   REMARKS
ST LOUIS INTL  PTCLDY    73  57  57 E8        30.14R
SPIRIT OF STL  PTCLDY    65  61  87 CALM      30.12R
ST CHARLES     CLEAR     66  58  75 E8        30.13R

$$
MOZ072>076-082>087-097>100-106>115-110500-
...SOUTH CENTRAL AND SOUTHEAST MISSOURI...

CITY           SKY/WX    TMP DP  RH WIND       PRES   REMARKS
CAPE GIRARDEAU CLEAR     72  66  81 CALM      30.13R
FARMINGTON     CLEAR     66  61  82 CALM      30.16S
POPLAR BLUFF   PTCLDY    72  66  81 NE3       30.11R
WEST PLAINS    MOCLDY    69  66  90 CALM      30.15R

$$



USA.gov is the U.S. government's official web portal to all federal, state and local government web resources and services.